Погода в Бамболиме

Индия     15°28′46″N   73°51′19″E
темп.,
°C
ветер,
м/с
пор.,
м/с
влажн.,
%
обл.,
%
осадки,
мм/ч
давл.,
гПа
погр.,
м
20 апреля, вт
вт2023:30+28зсз34735 0.0 1011666
02:30+28ссз457311 0.0 1009804
05:30+26св22815 0.0 1009256
08:30+28ссз22738 0.0 1011469
11:30+28з55745 0.0 1010596
14:30+30з66655 0.0 1008560
17:30+29сз78655 0.0 1007769
20:30+29сз6769100 0.0 1009697
21 апреля, ср
ср2123:30+28сз4571100 0.0 1010609
02:30+27ссз347312 0.0 1008641
05:30+26св237898 0.0 1009325
08:30+27всв227399 0.0 1012330
11:30+28з557225 0.0 1011582
14:30+30зсз77662 0.0 1009592
17:30+29сз896721 0.0 1008760
20:30+29сз8107467 0.0 1010839
22 апреля, чт
чт2223:30+28ссз577361 0.0 1011653
02:30+27ссз3474100 0.0 1009491
05:30+26св3380100 0.0 1010257
08:30+27ссв2371100 0.0 1012305
11:30+28зсз667379 0.0 1012547
14:30+30зсз8866100 0.0 1008556
17:30+29зсз886835 0.0 1008847
20:30+29сз7872100 0.0 1010786
23 апреля, пт
пт2323:30+28сз5673100 0.0 1010689
02:30+27ссз3374100 0.0 1009637
05:30+26св337933 0.0 1009340
08:30+27всв1175100 0.0 1012264
11:30+28з55767 0.0 1011545
14:30+30зсз776672 0.0 1009731
17:30+29сз786559 0.0 1008833
20:30+29сз686912 0.0 1010747
24 апреля, сб
сб2423:30+28ссз457052 0.0 1011680
02:30+27ссз347289 0.0 1009638
05:30+26св2278100 0.0 1009216
08:30+27всв2274100 0.0 1011261
11:30+28з457367 0.0 1011485
14:30+30зсз8864100 0.0 1007489
17:30+30сз7864100 0.0 1008759
20:30+29сз68695 0.0 1010724